History for Ft Lauderdale, FL

Thursday, January 12, 2017 — View Current Conditions

Jump to Data:

Date:
Airport Code:
Recently Viewed Airport Codes: KFLL
Daily Summary
  Actual Average Record
Temperature
Mean Temperature 75°F 69°F  
Max Temperature 79°F 76°F 86°F (1925)
Min Temperature 71°F 61°F 32°F (1982)
Degree Days
Heating Degree Days 0 2  
Month to date heating degree days 11 24  
Since 1 July heating degree days 13 56  
Cooling Degree Days 10 5  
Month to date cooling degree days 86 69  
Year to date cooling degree days 86 69  
Growing Degree Days 25 (Base 50)    
Moisture
Dew Point 62°F    
Average Humidity 65    
Maximum Humidity 73    
Minimum Humidity 56    
Precipitation
Precipitation T in 0.08 in 1.49 in (1939)
Month to date precipitation 0.60 0.99  
Year to date precipitation 0.60 0.99  
Snow
Snow 0.00 in in in ()
Month to date snowfall 0.0  
Since 1 July snowfall 0.0  
Snow Depth 0.00 in    
Sea Level Pressure
Sea Level Pressure 30.28 in    
Wind
Wind Speed 14 mph (East)    
Max Wind Speed 22 mph    
Max Gust Speed 26 mph    
Visibility 10 miles    
Events      
T = Trace of Precipitation, MM = Missing Value Source: NWS Daily Summary

Show full METARS

(help) - Comma Delimited File

Hourly Observations

Time(EST) Temperature Dew Point Humidity Sea Level Pressure Visibility Wind Direction Wind Speed Gust Speed Precipitation Events Conditions
12:53 AM 73.0°F 57.9°F 59% 30.25 in 10.0 miles East 19.6 mph - N/A   Overcast
1:53 AM 73.0°F 57.9°F 59% 30.26 in 10.0 miles East 19.6 mph - N/A   Overcast
2:53 AM 73.0°F 57.9°F 59% 30.25 in 10.0 miles East 13.8 mph - N/A   Overcast
3:53 AM 73.0°F 60.1°F 64% 30.24 in 10.0 miles East 15.0 mph - N/A   Overcast
4:53 AM 73.0°F 61.0°F 66% 30.24 in 10.0 miles East 11.5 mph - N/A   Mostly Cloudy
5:53 AM 72.0°F 62.1°F 71% 30.25 in 10.0 miles ESE 10.4 mph - N/A   Overcast
6:53 AM 72.0°F 62.1°F 71% 30.26 in 10.0 miles East 13.8 mph - 0.00 in   Mostly Cloudy
7:53 AM 73.0°F 60.1°F 64% 30.28 in 10.0 miles East 11.5 mph - N/A   Mostly Cloudy
8:53 AM 73.0°F 64.0°F 73% 30.31 in 10.0 miles East 9.2 mph - N/A   Overcast
9:53 AM 73.0°F 64.0°F 73% 30.32 in 10.0 miles ESE 11.5 mph - 0.00 in   Overcast
10:53 AM 77.0°F 61.0°F 58% 30.33 in 10.0 miles East 16.1 mph - 0.00 in   Scattered Clouds
11:53 AM 78.1°F 63.0°F 60% 30.31 in 10.0 miles East 15.0 mph - N/A   Scattered Clouds
12:53 PM 75.9°F 62.1°F 62% 30.29 in 10.0 miles East 16.1 mph - N/A   Mostly Cloudy
1:53 PM 77.0°F 64.9°F 66% 30.27 in 10.0 miles East 13.8 mph 20.7 mph N/A   Mostly Cloudy
2:53 PM 77.0°F 64.0°F 64% 30.27 in 10.0 miles ENE 16.1 mph - N/A   Mostly Cloudy
3:00 PM 75.9°F 64.0°F 67% 30.27 in 10.0 miles ENE 12.7 mph - N/A   Mostly Cloudy
3:03 PM 75.9°F 64.0°F 67% 30.28 in 10.0 miles ENE 11.5 mph - N/A   Mostly Cloudy
3:53 PM 75.9°F 62.1°F 62% 30.27 in 10.0 miles ENE 11.5 mph 20.7 mph N/A   Scattered Clouds
4:53 PM 75.9°F 60.1°F 58% 30.27 in 10.0 miles NE 15.0 mph - N/A   Scattered Clouds
5:53 PM 73.9°F 59.0°F 59% 30.28 in 10.0 miles ENE 11.5 mph - N/A   Scattered Clouds
6:53 PM 73.9°F 57.9°F 57% 30.29 in 10.0 miles East 13.8 mph - N/A   Scattered Clouds
7:53 PM 73.9°F 57.9°F 57% 30.29 in 10.0 miles East 16.1 mph - N/A   Partly Cloudy
8:53 PM 73.9°F 63.0°F 68% 30.30 in 10.0 miles East 13.8 mph - 0.00 in   Mostly Cloudy
9:53 PM 73.9°F 61.0°F 64% 30.31 in 10.0 miles East 13.8 mph - N/A   Scattered Clouds
10:53 PM 73.9°F 63.0°F 68% 30.30 in 10.0 miles East 15.0 mph - N/A   Mostly Cloudy
11:53 PM 73.0°F 64.9°F 76% 30.29 in 10.0 miles ESE 15.0 mph 23.0 mph 0.00 in   Mostly Cloudy